Miscellaneous Local Product
Issued by NWS Hastings, NE

Home | Current Version | Previous Version | Graphics & Text | Print | Product List | Glossary On
Versions: 1 2 3 4 5 6 7 8 9 10 11 12 13 14 15 16 17 18 19 20 21 22 23 24 25 26 27 28 29 30 31 32 33 34 35 36 37 38 39 40 41 42 43 44 45 46 47 48 49 50
144
AXUS43 KGID 162302
MISGRI

GID CWA HOURLY WEATHER ROUNDUP
NATIONAL WEATHER SERVICE HASTINGS NE
600 PM CDT MON OCT 16 2017

NOTE: "FAIR" INDICATES FEW OR NO CLOUDS BELOW 12,000 FEET WITH NO
SIGNIFICANT WEATHER AND/OR OBSTRUCTIONS TO VISIBILITY.

...SOUTH CENTRAL NEBRASKA...

CITY           SKY/WX    TMP DP  RH WIND       PRES   REMARKS
GRAND ISLAND   CLEAR     72  36  26 S14       30.09F
HASTINGS       CLEAR     72  34  24 S8G20     30.10F
KEARNEY        CLEAR     73  36  25 S17       30.08F
ORD            CLEAR     72  36  26 S8        30.04F
YORK           CLEAR     72  36  26 S12       30.11F
AURORA         CLEAR     71  36  27 S10       30.09F
LEXINGTON      CLEAR     75  34  22 S16G22    30.06F
HOLDREGE       CLEAR     74  37  25 S16G22    30.08F
HEBRON         CLEAR     72  35  26 S13G20    30.14F

...NEBRASKA PANHANDLE...

CITY           SKY/WX    TMP DP  RH WIND       PRES   REMARKS
CHADRON        SUNNY     72  23  16 NW6       30.09S
ALLIANCE       CLOUDY    69  28  21 N9        30.11R
SCOTTSBLUFF    CLOUDY    68  22  17 NW12      30.13R
SIDNEY         CLOUDY    75  14  10 N14       30.14S

...WESTERN AND NORTH CENTRAL NEBRASKA...

CITY           SKY/WX    TMP DP  RH WIND       PRES   REMARKS
VALENTINE      CLEAR     76  29  17 NW10      30.04R
AINSWORTH      CLEAR     74  35  24 CALM      30.04R
ONEILL         CLEAR     72  41  32 S8        30.03F
BROKEN BOW     CLOUDY    75  45  34 SW3       30.05F
IMPERIAL       CLOUDY    77  13   9 NW8       30.09S
NORTH PLATTE   CLEAR     72  38  29 SW3       30.05F
MCCOOK         SUNNY     72  36  26 S10       30.08F

...EASTERN NEBRASKA...

CITY           SKY/WX    TMP DP  RH WIND       PRES   REMARKS
NORFOLK        CLEAR     72  35  25 S15       30.05F
SO SIOUX CITY  CLEAR     72  39  30 S9        30.05F
TEKAMAH        CLEAR     70  36  28 S9        30.08F
COLUMBUS       CLEAR     72  37  28 S12       30.08F
ALBION         CLEAR     73  38  27 S13G18    30.07S
OMAHA EPPLEY   PTCLDY    71  36  27 S12       30.11F
OFFUTT AFB     CLEAR     71  38  30 S9        30.12S
MILLARD        CLEAR     73  40  30 S8        30.12S
LINCOLN        CLEAR     71  39  31 S12       30.12F
NEBRASKA CITY  CLEAR     69  40  34 SW14      30.16S
FALLS CITY     CLEAR     69  36  29 S13       30.18F

...NORTHERN KANSAS...

CITY           SKY/WX    TMP DP  RH WIND       PRES   REMARKS
GOODLAND       CLOUDY    73  32  22 S14       30.11S
HILL CITY      SUNNY     74  33  22 S13G26    30.13S
NORTON         CLEAR     73  25  16 S9        30.10S
PHILLIPSBURG   CLEAR     75  30  19 S13G23    30.11F
SMITH CENTER   CLEAR     72  34  25 S12G17    30.13F
HAYS           CLEAR     72  35  25 S16       30.15F
RUSSELL        CLEAR     71  36  27 S20G28    30.15F
CONCORDIA      CLEAR     69  38  32 S14       30.16F
SALINA         CLEAR     70  40  33 S10G21    30.20F
TOPEKA         CLEAR     69  40  34 S9        30.22F



USA.gov is the U.S. government's official web portal to all federal, state and local government web resources and services.